This demonstration page uses our WeatherBlox Daily Observations layout. Learn more.

Left ArrowRight Arrow

Hourly Observations for February 22, 2015

Temp ( °F °C ) Dew Point ( °F °C ) Humidity (%) Winds ( mph kmh ) Pressure ( in mb ) Visibility ( mi km ) Precip ( " mm )
12:53 am 00:53 Mostly Clear 56 13.3 38 3.3 51 51 SE 14 22 29.78 1009 10 16 0.00 0.00
1:53 am 01:53 Clear 55 12.8 39 3.9 55 55 ESE 10 17 29.78 1009 10 16 0.00 0.00
2:53 am 02:53 Clear 55 12.8 40 4.4 57 57 ESE 14 22 29.78 1008 10 16 0.00 0.00
3:53 am 03:53 Clear 54 12.2 40 4.4 59 59 E 9 15 29.78 1008 10 16 0.00 0.00
4:53 am 04:53 Mostly Cloudy with Light Rain 53 11.7 40 4.4 61 61 ENE 6 9 29.80 1009 10 16 0.00 0.03
5:53 am 05:53 Partly Cloudy 51 10.6 39 3.9 64 64 NE 8 13 29.84 1010 10 16 0.00 0.03
6:53 am 06:53 Clear 49 9.4 38 3.3 66 66 NNE 9 15 29.87 1012 10 16 0.00 0.00
7:53 am 07:53 Cloudy 49 9.4 38 3.3 66 66 NE 12 19 29.91 1013 10 16 0.00 0.00
8:53 am 08:53 Cloudy 47 8.3 38 3.3 71 71 NE 21 33 29.98 1015 10 16 0.00 0.00
9:33 am 09:33 Cloudy 48 8.9 38 3.3 68 68 NNE 17 28 30.09 1019 10 16 0.00 0.00
9:53 am 09:53 Cloudy with Light Rain 46 7.8 38 3.3 73 73 NNE 22 35 30.06 1018 9 14 0.00 0.03
10:05 am 10:05 Cloudy with Light Rain 46 7.8 39 3.9 77 77 NNE 17 28 30.15 1021 9 14 0.00 0.03
10:53 am 10:53 Cloudy with Light Rain 44 6.7 38 3.3 79 79 NE 22 35 30.09 1019 10 16 0.00 0.03
11:53 am 11:53 Cloudy with Light Rain 44 6.7 38 3.3 79 79 NNE 20 31 30.14 1021 10 16 0.02 0.51
12:53 pm 12:53 Cloudy with Rain 44 6.7 38 3.3 79 79 NNE 20 31 30.17 1022 5 8 0.04 1.02
1:48 pm 13:48 Cloudy with Light Rain 43 6 37 3 81 81 NE 18 30 30.24 1024 10 16 0.00 0.00
1:53 pm 13:53 Cloudy with Light Rain 43 6.1 37 2.8 80 80 NE 20 31 30.15 1021 10 16 0.04 1.02
2:53 pm 14:53 Cloudy with Light Rain 42 5.6 35 1.7 76 76 NE 16 26 30.18 1022 10 16 0.00 0.03
3:21 pm 15:21 Cloudy with Light Rain 39 3.9 33 0.6 79 79 NNE 21 33 30.27 1025 10 16 0.00 0.03
3:28 pm 15:28 Cloudy 37 3 34 1 87 87 NNE 22 35 30.30 1026 10 16 0.00 0.00
3:53 pm 15:53 Cloudy with Light Rain 36 2.2 31 -0.6 82 82 NNE 23 37 30.22 1023 10 16 0.00 0.03
4:17 pm 16:17 Windy with Snow Likely 35 1.7 30 -1.1 82 82 NNE 21 33 30.30 1026 8 13 0.01 0.25
4:29 pm 16:29 Cloudy 34 1.1 29 -1.7 82 82 NNE 22 35 30.33 1027 10 16 0.01 0.25
4:53 pm 16:53 Cloudy 34 1.1 28 -2.2 79 79 NNE 20 31 30.25 1025 10 16 0.01 0.25
5:53 pm 17:53 Cloudy 32 0 26 -3.3 79 79 NNE 16 26 30.29 1026 10 16 0.00 0.00
6:53 pm 18:53 Cloudy with Haze 29 -1.7 24 -4.4 82 82 NNE 20 31 30.32 1027 6 10 0.00 0.00
7:22 pm 19:22 Cloudy 28 -2 23 -5 80 80 NE 20 31 30.45 1031 8 13 0.00 0.00
7:53 pm 19:53 Cloudy 28 -2.2 23 -5 81 81 NE 18 30 30.35 1028 8 13 0.00 0.00
8:53 pm 20:53 Cloudy 28 -2.2 23 -5 81 81 NE 15 24 30.40 1029 8 13 0.00 0.00
9:18 pm 21:18 Cloudy 28 -2 23 -5 80 80 NE 13 20 30.56 1035 9 14 0.00 0.00
9:41 pm 21:41 Cloudy 27 -2.8 22 -5.6 81 81 NE 16 26 30.56 1035 10 16 0.00 0.00
9:53 pm 21:53 Cloudy 27 -2.8 22 -5.6 81 81 NE 16 26 30.42 1030 10 16 0.00 0.00
10:53 pm 22:53 Cloudy 27 -2.8 21 -6.1 78 78 NE 13 20 30.43 1030 10 16 0.00 0.00
11:04 pm 23:04 Cloudy 27 -3 21 -6 80 80 NE 14 22 30.56 1035 8 13 0.00 0.00
11:37 pm 23:37 Cloudy 26 -3.3 20 -6.7 78 78 NE 16 26 30.56 1035 7 11 0.00 0.00
11:53 pm 23:53 Cloudy with Haze 26 -3.3 21 -6.1 81 81 NNE 15 24 30.45 1031 5 8 0.00 0.00

Powered by AerisWeather